Location: Carrizal
(9.8472°N, 67.3428°W)
Time: 05:52:58
(UTC+00:00)

Cosmos 1607 - Pass Details

Date: 13 April 2024
Orbit: 908 x 993 km, 65.0° (Epoch: 25 May)

Event Time Altitude Azimuth Distance (km) Brightness Sun altitude
Rises 23:13:52 0° 347° (NNW) 3,659 7.4 -9.1°
Reaches altitude 10° 23:16:32 10° 352° (N) 2,701 6.6 -9.7°
Maximum altitude 23:22:38 50° 67° (ENE) 1,198 4.2 -11.2°
Drops below altitude 10° 23:28:35 10° 141° (SE) 2,645 5.8 -12.6°
Enters shadow 23:29:08 - 142° (SE) 2,841 6.0 -12.8°
